owner,sensor,date,latitude,longitude,vertical_datum,sea_water_practical_salinity,qcFlag 
SCCF RECON,ioos:station:SCCF:13:1,2019-06-01T04:00:00Z,26.5255,-82.0032,2.44,30.35,11111222 
SCCF RECON,ioos:station:SCCF:13:1,2019-06-01T05:00:00Z,26.5255,-82.0032,2.49,31.58,11111222 
SCCF RECON,ioos:station:SCCF:13:1,2019-06-01T06:00:00Z,26.5255,-82.0032,2.49,32.77,11111222 
SCCF RECON,ioos:station:SCCF:13:1,2019-06-01T07:00:00Z,26.5255,-82.0032,2.43,33.25,11111222 
SCCF RECON,ioos:station:SCCF:13:1,2019-06-01T08:00:00Z,26.5255,-82.0032,2.359,33.48,11111222 
SCCF RECON,ioos:station:SCCF:13:1,2019-06-01T09:00:00Z,26.5255,-82.0032,2.3,32.08,11111222 
SCCF RECON,ioos:station:SCCF:13:1,2019-06-01T10:00:00Z,26.5255,-82.0032,2.26,29.76,11111222 
SCCF RECON,ioos:station:SCCF:13:1,2019-06-01T11:00:00Z,26.5255,-82.0032,2.238,28.05,11111222 
SCCF RECON,ioos:station:SCCF:13:1,2019-06-01T12:00:00Z,26.5255,-82.0032,2.31,26.73,11111222 
SCCF RECON,ioos:station:SCCF:13:1,2019-06-01T13:00:00Z,26.5255,-82.0032,2.409,27.68,11111222 
SCCF RECON,ioos:station:SCCF:13:1,2019-06-01T14:00:00Z,26.5255,-82.0032,2.491,31.4,11111222 
SCCF RECON,ioos:station:SCCF:13:1,2019-06-01T15:00:00Z,26.5255,-82.0032,2.57,31.76,11111222 
SCCF RECON,ioos:station:SCCF:13:1,2019-06-01T16:00:00Z,26.5255,-82.0032,2.61,33.25,11111222 
SCCF RECON,ioos:station:SCCF:13:1,2019-06-01T17:00:00Z,26.5255,-82.0032,2.599,34.04,11111222 
SCCF RECON,ioos:station:SCCF:13:1,2019-06-01T18:00:00Z,26.5255,-82.0032,2.55,34.42,11111222 
SCCF RECON,ioos:station:SCCF:13:1,2019-06-01T19:00:00Z,26.5255,-82.0032,2.43,34.38,11111222 
SCCF RECON,ioos:station:SCCF:13:1,2019-06-01T20:00:00Z,26.5255,-82.0032,2.313,33.52,11111222 
SCCF RECON,ioos:station:SCCF:13:1,2019-06-01T21:00:00Z,26.5255,-82.0032,2.222,32.65,11111222 
SCCF RECON,ioos:station:SCCF:13:1,2019-06-01T22:00:00Z,26.5255,-82.0032,2.129,31.05,11111222 
SCCF RECON,ioos:station:SCCF:13:1,2019-06-01T23:00:00Z,26.5255,-82.0032,2.05,29.19,11111222 
SCCF RECON,ioos:station:SCCF:13:1,2019-06-02T04:00:00Z,26.5255,-82.0032,2.35,28.05,11111222 
SCCF RECON,ioos:station:SCCF:13:1,2019-06-02T05:00:00Z,26.5255,-82.0032,2.405,30.0,11111222 
SCCF RECON,ioos:station:SCCF:13:1,2019-06-02T06:00:00Z,26.5255,-82.0032,2.43,31.34,11111222 
SCCF RECON,ioos:station:SCCF:13:1,2019-06-02T07:00:00Z,26.5255,-82.0032,2.41,32.76,11111222 
SCCF RECON,ioos:station:SCCF:13:1,2019-06-02T08:00:00Z,26.5255,-82.0032,2.34,33.04,11111222 
SCCF RECON,ioos:station:SCCF:13:1,2019-06-02T09:00:00Z,26.5255,-82.0032,2.29,33.25,11111222 
SCCF RECON,ioos:station:SCCF:13:1,2019-06-02T10:00:00Z,26.5255,-82.0032,2.25,32.35,11111222 
SCCF RECON,ioos:station:SCCF:13:1,2019-06-02T11:00:00Z,26.5255,-82.0032,2.25,29.34,11111222 
SCCF RECON,ioos:station:SCCF:13:1,2019-06-02T12:00:00Z,26.5255,-82.0032,2.29,28.87,11111222 
SCCF RECON,ioos:station:SCCF:13:1,2019-06-02T13:00:00Z,26.5255,-82.0032,2.39,29.12,11111222 
SCCF RECON,ioos:station:SCCF:13:1,2019-06-02T14:00:00Z,26.5255,-82.0032,2.489,32.09,11111222 
SCCF RECON,ioos:station:SCCF:13:1,2019-06-02T15:00:00Z,26.5255,-82.0032,2.551,32.01,11111222 
SCCF RECON,ioos:station:SCCF:13:1,2019-06-02T16:00:00Z,26.5255,-82.0032,2.612,33.39,11111222 
SCCF RECON,ioos:station:SCCF:13:1,2019-06-02T17:00:00Z,26.5255,-82.0032,2.65,34.41,11111222 
SCCF RECON,ioos:station:SCCF:13:1,2019-06-02T18:00:00Z,26.5255,-82.0032,2.64,34.55,11111222 
SCCF RECON,ioos:station:SCCF:13:1,2019-06-02T19:00:00Z,26.5255,-82.0032,2.532,34.51,11111222 
SCCF RECON,ioos:station:SCCF:13:1,2019-06-02T20:00:00Z,26.5255,-82.0032,2.408,34.54,11111222 
SCCF RECON,ioos:station:SCCF:13:1,2019-06-02T21:00:00Z,26.5255,-82.0032,2.291,33.71,11111222 
SCCF RECON,ioos:station:SCCF:13:1,2019-06-02T22:00:00Z,26.5255,-82.0032,2.198,33.48,11111222 
SCCF RECON,ioos:station:SCCF:13:1,2019-06-02T23:00:00Z,26.5255,-82.0032,2.11,31.87,11111222 
SCCF RECON,ioos:station:SCCF:13:1,2019-06-03T04:00:00Z,26.5255,-82.0032,2.31,26.52,11111222 
SCCF RECON,ioos:station:SCCF:13:1,2019-06-03T05:00:00Z,26.5255,-82.0032,2.38,29.57,11111222 
SCCF RECON,ioos:station:SCCF:13:1,2019-06-03T06:00:00Z,26.5255,-82.0032,2.44,31.55,11111222 
SCCF RECON,ioos:station:SCCF:13:1,2019-06-03T07:00:00Z,26.5255,-82.0032,2.46,32.83,11111222 
SCCF RECON,ioos:station:SCCF:13:1,2019-06-03T08:00:00Z,26.5255,-82.0032,2.43,33.26,11111222 
SCCF RECON,ioos:station:SCCF:13:1,2019-06-03T09:00:00Z,26.5255,-82.0032,2.38,33.25,11111222 
SCCF RECON,ioos:station:SCCF:13:1,2019-06-03T10:00:00Z,26.5255,-82.0032,2.35,33.31,11111222 
SCCF RECON,ioos:station:SCCF:13:1,2019-06-03T11:00:00Z,26.5255,-82.0032,2.32,32.73,11111222 
SCCF RECON,ioos:station:SCCF:13:1,2019-06-03T12:00:00Z,26.5255,-82.0032,2.313,31.55,11111222 
SCCF RECON,ioos:station:SCCF:13:1,2019-06-03T13:00:00Z,26.5255,-82.0032,2.37,29.91,11111222 
SCCF RECON,ioos:station:SCCF:13:1,2019-06-03T14:00:00Z,26.5255,-82.0032,2.484,31.17,11111222 
SCCF RECON,ioos:station:SCCF:13:1,2019-06-03T15:00:00Z,26.5255,-82.0032,2.576,32.32,11111222 
SCCF RECON,ioos:station:SCCF:13:1,2019-06-03T16:00:00Z,26.5255,-82.0032,2.639,32.74,11111222 
SCCF RECON,ioos:station:SCCF:13:1,2019-06-03T17:00:00Z,26.5255,-82.0032,2.69,33.92,11111222 
SCCF RECON,ioos:station:SCCF:13:1,2019-06-03T18:00:00Z,26.5255,-82.0032,2.69,34.49,11111222 
SCCF RECON,ioos:station:SCCF:13:1,2019-06-03T19:00:00Z,26.5255,-82.0032,2.62,34.54,11111222 
SCCF RECON,ioos:station:SCCF:13:1,2019-06-03T20:00:00Z,26.5255,-82.0032,2.5,34.55,11111222 
SCCF RECON,ioos:station:SCCF:13:1,2019-06-03T21:00:00Z,26.5255,-82.0032,2.385,34.07,11111222 
SCCF RECON,ioos:station:SCCF:13:1,2019-06-03T22:00:00Z,26.5255,-82.0032,2.29,33.59,11111222 
SCCF RECON,ioos:station:SCCF:13:1,2019-06-03T23:00:00Z,26.5255,-82.0032,2.182,32.67,11111222 
SCCF RECON,ioos:station:SCCF:13:1,2019-06-04T04:00:00Z,26.5255,-82.0032,2.27,25.1,11111222 
SCCF RECON,ioos:station:SCCF:13:1,2019-06-04T05:00:00Z,26.5255,-82.0032,2.35,27.86,11111222 
SCCF RECON,ioos:station:SCCF:13:1,2019-06-04T06:00:00Z,26.5255,-82.0032,2.41,29.72,11111222 
SCCF RECON,ioos:station:SCCF:13:1,2019-06-04T07:00:00Z,26.5255,-82.0032,2.46,32.38,11111222 
SCCF RECON,ioos:station:SCCF:13:1,2019-06-04T08:00:00Z,26.5255,-82.0032,2.47,33.18,11111222 
SCCF RECON,ioos:station:SCCF:13:1,2019-06-04T09:00:00Z,26.5255,-82.0032,2.43,33.34,11111222 
SCCF RECON,ioos:station:SCCF:13:1,2019-06-04T10:00:00Z,26.5255,-82.0032,2.38,33.37,11111222 
SCCF RECON,ioos:station:SCCF:13:1,2019-06-04T11:00:00Z,26.5255,-82.0032,2.36,33.36,11111222 
SCCF RECON,ioos:station:SCCF:13:1,2019-06-04T12:00:00Z,26.5255,-82.0032,2.34,32.8,11111222 
SCCF RECON,ioos:station:SCCF:13:1,2019-06-04T13:00:00Z,26.5255,-82.0032,2.36,31.33,11111222 
SCCF RECON,ioos:station:SCCF:13:1,2019-06-04T14:00:00Z,26.5255,-82.0032,2.42,30.48,11111222 
SCCF RECON,ioos:station:SCCF:13:1,2019-06-04T15:00:00Z,26.5255,-82.0032,2.52,31.64,11111222 
SCCF RECON,ioos:station:SCCF:13:1,2019-06-04T16:00:00Z,26.5255,-82.0032,2.619,32.2,11111222 
SCCF RECON,ioos:station:SCCF:13:1,2019-06-04T17:00:00Z,26.5255,-82.0032,2.663,33.0,11111222 
SCCF RECON,ioos:station:SCCF:13:1,2019-06-04T18:00:00Z,26.5255,-82.0032,2.7,34.08,11111222 
SCCF RECON,ioos:station:SCCF:13:1,2019-06-04T19:00:00Z,26.5255,-82.0032,2.68,34.46,11111222 
SCCF RECON,ioos:station:SCCF:13:1,2019-06-04T20:00:00Z,26.5255,-82.0032,2.583,34.33,11111222 
SCCF RECON,ioos:station:SCCF:13:1,2019-06-04T21:00:00Z,26.5255,-82.0032,2.457,34.46,11111222 
SCCF RECON,ioos:station:SCCF:13:1,2019-06-04T22:00:00Z,26.5255,-82.0032,2.35,33.65,11111222 
SCCF RECON,ioos:station:SCCF:13:1,2019-06-04T23:00:00Z,26.5255,-82.0032,2.279,33.61,11111222 
SCCF RECON,ioos:station:SCCF:13:1,2019-06-05T04:00:00Z,26.5255,-82.0032,2.13,25.45,11111222 
SCCF RECON,ioos:station:SCCF:13:1,2019-06-05T05:00:00Z,26.5255,-82.0032,2.24,24.92,11111222 
SCCF RECON,ioos:station:SCCF:13:1,2019-06-05T06:00:00Z,26.5255,-82.0032,2.33,27.91,11111222 
SCCF RECON,ioos:station:SCCF:13:1,2019-06-05T07:00:00Z,26.5255,-82.0032,2.39,29.66,11111222 
SCCF RECON,ioos:station:SCCF:13:1,2019-06-05T08:00:00Z,26.5255,-82.0032,2.44,31.73,11111222 
SCCF RECON,ioos:station:SCCF:13:1,2019-06-05T09:00:00Z,26.5255,-82.0032,2.445,33.3,11111222 
SCCF RECON,ioos:station:SCCF:13:1,2019-06-05T10:00:00Z,26.5255,-82.0032,2.42,33.27,11111222 
SCCF RECON,ioos:station:SCCF:13:1,2019-06-05T11:00:00Z,26.5255,-82.0032,2.38,33.23,11111222 
SCCF RECON,ioos:station:SCCF:13:1,2019-06-05T12:00:00Z,26.5255,-82.0032,2.35,33.18,11111222 
SCCF RECON,ioos:station:SCCF:13:1,2019-06-05T13:00:00Z,26.5255,-82.0032,2.34,33.01,11111222 
SCCF RECON,ioos:station:SCCF:13:1,2019-06-05T14:00:00Z,26.5255,-82.0032,2.392,32.46,11111222 
SCCF RECON,ioos:station:SCCF:13:1,2019-06-05T15:00:00Z,26.5255,-82.0032,2.48,32.58,11111222 
SCCF RECON,ioos:station:SCCF:13:1,2019-06-05T16:00:00Z,26.5255,-82.0032,2.57,32.94,11111222 
SCCF RECON,ioos:station:SCCF:13:1,2019-06-05T17:00:00Z,26.5255,-82.0032,2.64,33.2,11111222 
SCCF RECON,ioos:station:SCCF:13:1,2019-06-05T18:00:00Z,26.5255,-82.0032,2.68,34.09,11111222 
SCCF RECON,ioos:station:SCCF:13:1,2019-06-05T19:00:00Z,26.5255,-82.0032,2.691,34.34,11111222 
SCCF RECON,ioos:station:SCCF:13:1,2019-06-05T20:00:00Z,26.5255,-82.0032,2.667,34.43,11111222 
SCCF RECON,ioos:station:SCCF:13:1,2019-06-05T21:00:00Z,26.5255,-82.0032,2.56,34.43,11111222 
SCCF RECON,ioos:station:SCCF:13:1,2019-06-05T22:00:00Z,26.5255,-82.0032,2.44,34.37,11111222 
SCCF RECON,ioos:station:SCCF:13:1,2019-06-05T23:00:00Z,26.5255,-82.0032,2.341,33.65,11111222 
SCCF RECON,ioos:station:SCCF:13:1,2019-06-06T04:00:00Z,26.5255,-82.0032,2.03,26.74,11111222 
SCCF RECON,ioos:station:SCCF:13:1,2019-06-06T05:00:00Z,26.5255,-82.0032,2.154,26.01,11111222 
SCCF RECON,ioos:station:SCCF:13:1,2019-06-06T06:00:00Z,26.5255,-82.0032,2.25,25.45,11111222 
SCCF RECON,ioos:station:SCCF:13:1,2019-06-06T07:00:00Z,26.5255,-82.0032,2.32,27.65,11111222 
SCCF RECON,ioos:station:SCCF:13:1,2019-06-06T08:00:00Z,26.5255,-82.0032,2.37,29.47,11111222 
SCCF RECON,ioos:station:SCCF:13:1,2019-06-06T09:00:00Z,26.5255,-82.0032,2.4,31.29,11111222 
SCCF RECON,ioos:station:SCCF:13:1,2019-06-06T10:00:00Z,26.5255,-82.0032,2.41,32.71,11111222 
SCCF RECON,ioos:station:SCCF:13:1,2019-06-06T11:00:00Z,26.5255,-82.0032,2.401,33.3,11111222 
SCCF RECON,ioos:station:SCCF:13:1,2019-06-06T12:00:00Z,26.5255,-82.0032,2.38,33.14,11111222 
SCCF RECON,ioos:station:SCCF:13:1,2019-06-06T13:00:00Z,26.5255,-82.0032,2.34,33.23,11111222 
SCCF RECON,ioos:station:SCCF:13:1,2019-06-06T14:00:00Z,26.5255,-82.0032,2.33,32.72,11111222 
SCCF RECON,ioos:station:SCCF:13:1,2019-06-06T15:00:00Z,26.5255,-82.0032,2.4,32.12,11111222 
SCCF RECON,ioos:station:SCCF:13:1,2019-06-06T16:00:00Z,26.5255,-82.0032,2.48,32.79,11111222 
SCCF RECON,ioos:station:SCCF:13:1,2019-06-06T17:00:00Z,26.5255,-82.0032,2.55,33.11,11111222 
SCCF RECON,ioos:station:SCCF:13:1,2019-06-06T18:00:00Z,26.5255,-82.0032,2.61,33.35,11111222 
SCCF RECON,ioos:station:SCCF:13:1,2019-06-06T19:00:00Z,26.5255,-82.0032,2.66,34.17,11111222 
SCCF RECON,ioos:station:SCCF:13:1,2019-06-06T20:00:00Z,26.5255,-82.0032,2.679,34.46,11111222 
SCCF RECON,ioos:station:SCCF:13:1,2019-06-06T21:00:00Z,26.5255,-82.0032,2.65,34.54,11111222 
SCCF RECON,ioos:station:SCCF:13:1,2019-06-06T22:00:00Z,26.5255,-82.0032,2.55,34.51,11111222 
SCCF RECON,ioos:station:SCCF:13:1,2019-06-06T23:00:00Z,26.5255,-82.0032,2.428,34.38,11111222 
SCCF RECON,ioos:station:SCCF:13:1,2019-06-07T04:00:00Z,26.5255,-82.0032,2.008,28.09,11111222 
SCCF RECON,ioos:station:SCCF:13:1,2019-06-07T05:00:00Z,26.5255,-82.0032,2.05,27.0,11111222 
SCCF RECON,ioos:station:SCCF:13:1,2019-06-07T06:00:00Z,26.5255,-82.0032,2.16,25.98,11111222 
SCCF RECON,ioos:station:SCCF:13:1,2019-06-07T07:00:00Z,26.5255,-82.0032,2.26,25.73,11111222 
SCCF RECON,ioos:station:SCCF:13:1,2019-06-07T08:00:00Z,26.5255,-82.0032,2.34,28.12,11111222 
SCCF RECON,ioos:station:SCCF:13:1,2019-06-07T09:00:00Z,26.5255,-82.0032,2.4,30.46,11111222 
SCCF RECON,ioos:station:SCCF:13:1,2019-06-07T10:00:00Z,26.5255,-82.0032,2.432,32.23,11111222 
SCCF RECON,ioos:station:SCCF:13:1,2019-06-07T11:00:00Z,26.5255,-82.0032,2.43,33.59,11111222 
SCCF RECON,ioos:station:SCCF:13:1,2019-06-07T12:00:00Z,26.5255,-82.0032,2.39,33.71,11111222 
SCCF RECON,ioos:station:SCCF:13:1,2019-06-07T13:00:00Z,26.5255,-82.0032,2.37,33.54,11111222 
SCCF RECON,ioos:station:SCCF:13:1,2019-06-07T14:00:00Z,26.5255,-82.0032,2.35,33.62,11111222 
SCCF RECON,ioos:station:SCCF:13:1,2019-06-07T15:00:00Z,26.5255,-82.0032,2.362,33.34,11111222 
SCCF RECON,ioos:station:SCCF:13:1,2019-06-07T16:00:00Z,26.5255,-82.0032,2.44,33.23,11111222 
SCCF RECON,ioos:station:SCCF:13:1,2019-06-07T17:00:00Z,26.5255,-82.0032,2.5,33.2,11111222 
SCCF RECON,ioos:station:SCCF:13:1,2019-06-07T18:00:00Z,26.5255,-82.0032,2.56,33.23,11111222 
SCCF RECON,ioos:station:SCCF:13:1,2019-06-07T19:00:00Z,26.5255,-82.0032,2.609,33.73,11111222 
SCCF RECON,ioos:station:SCCF:13:1,2019-06-07T20:00:00Z,26.5255,-82.0032,2.63,34.51,11111222 
SCCF RECON,ioos:station:SCCF:13:1,2019-06-07T21:00:00Z,26.5255,-82.0032,2.64,34.64,11111222 
SCCF RECON,ioos:station:SCCF:13:1,2019-06-07T22:00:00Z,26.5255,-82.0032,2.622,34.69,11111222 
SCCF RECON,ioos:station:SCCF:13:1,2019-06-07T23:00:00Z,26.5255,-82.0032,2.53,34.67,11111222 
SCCF RECON,ioos:station:SCCF:13:1,2019-06-08T04:00:00Z,26.5255,-82.0032,2.06,29.45,11111222 
SCCF RECON,ioos:station:SCCF:13:1,2019-06-08T05:00:00Z,26.5255,-82.0032,2.03,28.54,11111222 
SCCF RECON,ioos:station:SCCF:13:1,2019-06-08T06:00:00Z,26.5255,-82.0032,2.13,27.52,11111222 
SCCF RECON,ioos:station:SCCF:13:1,2019-06-08T07:00:00Z,26.5255,-82.0032,2.22,26.53,11111222 
SCCF RECON,ioos:station:SCCF:13:1,2019-06-08T08:00:00Z,26.5255,-82.0032,2.27,26.51,11111222 
SCCF RECON,ioos:station:SCCF:13:1,2019-06-08T09:00:00Z,26.5255,-82.0032,2.33,29.11,11111222 
SCCF RECON,ioos:station:SCCF:13:1,2019-06-08T10:00:00Z,26.5255,-82.0032,2.41,30.1,11111222 
SCCF RECON,ioos:station:SCCF:13:1,2019-06-08T11:00:00Z,26.5255,-82.0032,2.46,32.27,11111222 
SCCF RECON,ioos:station:SCCF:13:1,2019-06-08T12:00:00Z,26.5255,-82.0032,2.46,33.73,11111222 
SCCF RECON,ioos:station:SCCF:13:1,2019-06-08T13:00:00Z,26.5255,-82.0032,2.44,33.9,11111222 
SCCF RECON,ioos:station:SCCF:13:1,2019-06-08T14:00:00Z,26.5255,-82.0032,2.42,33.9,11111222 
SCCF RECON,ioos:station:SCCF:13:1,2019-06-08T15:00:00Z,26.5255,-82.0032,2.39,33.85,11111222 
SCCF RECON,ioos:station:SCCF:13:1,2019-06-08T16:00:00Z,26.5255,-82.0032,2.359,33.66,11111222 
SCCF RECON,ioos:station:SCCF:13:1,2019-06-08T17:00:00Z,26.5255,-82.0032,2.392,32.98,11111222 
SCCF RECON,ioos:station:SCCF:13:1,2019-06-08T18:00:00Z,26.5255,-82.0032,2.46,32.97,11111222 
SCCF RECON,ioos:station:SCCF:13:1,2019-06-08T19:00:00Z,26.5255,-82.0032,2.528,33.38,11111222 
SCCF RECON,ioos:station:SCCF:13:1,2019-06-09T04:00:00Z,26.5255,-82.0032,2.179,31.34,11111222 
SCCF RECON,ioos:station:SCCF:13:1,2019-06-09T05:00:00Z,26.5255,-82.0032,2.111,29.2,11111222 
SCCF RECON,ioos:station:SCCF:13:1,2019-06-09T06:00:00Z,26.5255,-82.0032,2.073,28.42,11111222 
SCCF RECON,ioos:station:SCCF:13:1,2019-06-09T07:00:00Z,26.5255,-82.0032,2.16,27.51,11111222 
SCCF RECON,ioos:station:SCCF:13:1,2019-06-09T08:00:00Z,26.5255,-82.0032,2.274,26.68,11111222 
SCCF RECON,ioos:station:SCCF:13:1,2019-06-09T09:00:00Z,26.5255,-82.0032,2.342,27.96,11111222 
SCCF RECON,ioos:station:SCCF:13:1,2019-06-09T10:00:00Z,26.5255,-82.0032,2.45,30.04,11111222 
SCCF RECON,ioos:station:SCCF:13:1,2019-06-09T11:00:00Z,26.5255,-82.0032,2.48,31.77,11111222 
SCCF RECON,ioos:station:SCCF:13:1,2019-06-09T12:00:00Z,26.5255,-82.0032,2.49,33.46,11111222 
SCCF RECON,ioos:station:SCCF:13:1,2019-06-09T13:00:00Z,26.5255,-82.0032,2.519,33.94,11111222 
SCCF RECON,ioos:station:SCCF:13:1,2019-06-09T14:00:00Z,26.5255,-82.0032,2.471,34.04,11111222 
SCCF RECON,ioos:station:SCCF:13:1,2019-06-09T15:00:00Z,26.5255,-82.0032,2.424,33.87,11111222 
SCCF RECON,ioos:station:SCCF:13:1,2019-06-09T16:00:00Z,26.5255,-82.0032,2.403,33.87,11111222 
SCCF RECON,ioos:station:SCCF:13:1,2019-06-09T17:00:00Z,26.5255,-82.0032,2.405,33.62,11111222 
SCCF RECON,ioos:station:SCCF:13:1,2019-06-09T18:00:00Z,26.5255,-82.0032,2.421,33.21,11111222 
SCCF RECON,ioos:station:SCCF:13:1,2019-06-09T19:00:00Z,26.5255,-82.0032,2.478,33.63,11111222 
SCCF RECON,ioos:station:SCCF:13:1,2019-06-09T20:00:00Z,26.5255,-82.0032,2.52,33.65,11111222 
SCCF RECON,ioos:station:SCCF:13:1,2019-06-09T21:00:00Z,26.5255,-82.0032,2.56,33.65,11111222 
SCCF RECON,ioos:station:SCCF:13:1,2019-06-09T22:00:00Z,26.5255,-82.0032,2.58,33.83,11111222 
SCCF RECON,ioos:station:SCCF:13:1,2019-06-09T23:00:00Z,26.5255,-82.0032,2.6,33.88,11111222 
SCCF RECON,ioos:station:SCCF:13:1,2019-06-10T04:00:00Z,26.5255,-82.0032,2.26,31.15,11111222 
SCCF RECON,ioos:station:SCCF:13:1,2019-06-10T05:00:00Z,26.5255,-82.0032,2.18,30.4,11111222 
SCCF RECON,ioos:station:SCCF:13:1,2019-06-10T06:00:00Z,26.5255,-82.0032,2.14,28.5,11111222 
SCCF RECON,ioos:station:SCCF:13:1,2019-06-10T07:00:00Z,26.5255,-82.0032,2.15,26.92,11111222 
SCCF RECON,ioos:station:SCCF:13:1,2019-06-10T08:00:00Z,26.5255,-82.0032,2.13,26.62,11111222 
SCCF RECON,ioos:station:SCCF:13:1,2019-06-10T09:00:00Z,26.5255,-82.0032,2.18,26.19,11111222 
SCCF RECON,ioos:station:SCCF:13:1,2019-06-10T10:00:00Z,26.5255,-82.0032,2.33,25.77,11111222 
SCCF RECON,ioos:station:SCCF:13:1,2019-06-10T11:00:00Z,26.5255,-82.0032,2.391,27.91,11111222 
SCCF RECON,ioos:station:SCCF:13:1,2019-06-10T12:00:00Z,26.5255,-82.0032,2.43,28.69,11111222 
SCCF RECON,ioos:station:SCCF:13:1,2019-06-10T13:00:00Z,26.5255,-82.0032,2.46,30.49,11111222 
SCCF RECON,ioos:station:SCCF:13:1,2019-06-10T15:00:00Z,26.5255,-82.0032,2.403,32.7,11111222 
SCCF RECON,ioos:station:SCCF:13:1,2019-06-10T16:00:00Z,26.5255,-82.0032,2.368,32.59,11111222 
SCCF RECON,ioos:station:SCCF:13:1,2019-06-10T17:00:00Z,26.5255,-82.0032,2.27,30.87,11111222 
SCCF RECON,ioos:station:SCCF:13:1,2019-06-10T18:00:00Z,26.5255,-82.0032,2.21,28.28,11111222 
SCCF RECON,ioos:station:SCCF:13:1,2019-06-10T19:00:00Z,26.5255,-82.0032,2.18,27.13,11111222 
SCCF RECON,ioos:station:SCCF:13:1,2019-06-10T20:00:00Z,26.5255,-82.0032,2.23,26.92,11111222 
SCCF RECON,ioos:station:SCCF:13:1,2019-06-10T21:00:00Z,26.5255,-82.0032,2.322,26.64,11111222 
SCCF RECON,ioos:station:SCCF:13:1,2019-06-10T22:00:00Z,26.5255,-82.0032,2.38,28.72,11111222 
SCCF RECON,ioos:station:SCCF:13:1,2019-06-10T23:00:00Z,26.5255,-82.0032,2.41,29.96,11111222 
SCCF RECON,ioos:station:SCCF:13:1,2019-06-11T04:00:00Z,26.5255,-82.0032,2.284,30.56,11111222 
SCCF RECON,ioos:station:SCCF:13:1,2019-06-11T05:00:00Z,26.5255,-82.0032,2.204,28.26,11111222 
SCCF RECON,ioos:station:SCCF:13:1,2019-06-11T06:00:00Z,26.5255,-82.0032,2.13,27.11,11111222 
SCCF RECON,ioos:station:SCCF:13:1,2019-06-11T07:00:00Z,26.5255,-82.0032,2.08,25.87,11111222 
SCCF RECON,ioos:station:SCCF:13:1,2019-06-11T08:00:00Z,26.5255,-82.0032,2.11,24.7,11111222 
SCCF RECON,ioos:station:SCCF:13:1,2019-06-11T09:00:00Z,26.5255,-82.0032,2.202,24.14,11111222 
SCCF RECON,ioos:station:SCCF:13:1,2019-06-11T10:00:00Z,26.5255,-82.0032,2.31,25.25,11111222 
SCCF RECON,ioos:station:SCCF:13:1,2019-06-11T11:00:00Z,26.5255,-82.0032,2.37,28.1,11111222 
SCCF RECON,ioos:station:SCCF:13:1,2019-06-11T12:00:00Z,26.5255,-82.0032,2.42,29.51,11111222 
SCCF RECON,ioos:station:SCCF:13:1,2019-06-11T13:00:00Z,26.5255,-82.0032,2.49,31.02,11111222 
SCCF RECON,ioos:station:SCCF:13:1,2019-06-11T14:00:00Z,26.5255,-82.0032,2.53,32.78,11111222 
SCCF RECON,ioos:station:SCCF:13:1,2019-06-11T15:00:00Z,26.5255,-82.0032,2.51,33.41,11111222 
SCCF RECON,ioos:station:SCCF:13:1,2019-06-11T16:00:00Z,26.5255,-82.0032,2.41,33.56,11111222 
SCCF RECON,ioos:station:SCCF:13:1,2019-06-11T17:00:00Z,26.5255,-82.0032,2.32,33.54,11111222 
SCCF RECON,ioos:station:SCCF:13:1,2019-06-11T18:00:00Z,26.5255,-82.0032,2.25,32.18,11111222 
SCCF RECON,ioos:station:SCCF:13:1,2019-06-11T21:00:00Z,26.5255,-82.0032,2.168,27.43,11111222 
SCCF RECON,ioos:station:SCCF:13:1,2019-06-11T22:00:00Z,26.5255,-82.0032,2.261,26.57,11111222 
SCCF RECON,ioos:station:SCCF:13:1,2019-06-11T23:00:00Z,26.5255,-82.0032,2.32,28.13,11111222 
SCCF RECON,ioos:station:SCCF:13:1,2019-06-12T04:00:00Z,26.5255,-82.0032,2.44,32.51,11111222 
SCCF RECON,ioos:station:SCCF:13:1,2019-06-12T05:00:00Z,26.5255,-82.0032,2.35,32.49,11111222 
SCCF RECON,ioos:station:SCCF:13:1,2019-06-12T06:00:00Z,26.5255,-82.0032,2.26,30.7,11111222 
SCCF RECON,ioos:station:SCCF:13:1,2019-06-12T07:00:00Z,26.5255,-82.0032,2.19,28.61,11111222 
SCCF RECON,ioos:station:SCCF:13:1,2019-06-12T08:00:00Z,26.5255,-82.0032,2.14,27.26,11111222 
SCCF RECON,ioos:station:SCCF:13:1,2019-06-12T09:00:00Z,26.5255,-82.0032,2.181,26.3,11111222 
SCCF RECON,ioos:station:SCCF:13:1,2019-06-12T10:00:00Z,26.5255,-82.0032,2.31,25.49,11111222 
SCCF RECON,ioos:station:SCCF:13:1,2019-06-12T11:00:00Z,26.5255,-82.0032,2.401,28.5,11111222 
SCCF RECON,ioos:station:SCCF:13:1,2019-06-12T12:00:00Z,26.5255,-82.0032,2.47,30.23,11111222 
SCCF RECON,ioos:station:SCCF:13:1,2019-06-12T13:00:00Z,26.5255,-82.0032,2.52,31.31,11111222 
SCCF RECON,ioos:station:SCCF:13:1,2019-06-12T14:00:00Z,26.5255,-82.0032,2.55,33.05,11111222 
SCCF RECON,ioos:station:SCCF:13:1,2019-06-12T15:00:00Z,26.5255,-82.0032,2.55,33.9,11111222 
SCCF RECON,ioos:station:SCCF:13:1,2019-06-12T16:00:00Z,26.5255,-82.0032,2.52,33.82,11111222 
SCCF RECON,ioos:station:SCCF:13:1,2019-06-12T17:00:00Z,26.5255,-82.0032,2.436,33.86,11111222 
SCCF RECON,ioos:station:SCCF:13:1,2019-06-12T18:00:00Z,26.5255,-82.0032,2.331,33.53,11111222 
SCCF RECON,ioos:station:SCCF:13:1,2019-06-12T19:00:00Z,26.5255,-82.0032,2.258,32.07,11111222 
SCCF RECON,ioos:station:SCCF:13:1,2019-06-12T20:00:00Z,26.5255,-82.0032,2.186,30.64,11111222 
SCCF RECON,ioos:station:SCCF:13:1,2019-06-12T21:00:00Z,26.5255,-82.0032,2.122,29.0,11111222 
SCCF RECON,ioos:station:SCCF:13:1,2019-06-12T22:00:00Z,26.5255,-82.0032,2.1,27.56,11111222 
SCCF RECON,ioos:station:SCCF:13:1,2019-06-12T23:00:00Z,26.5255,-82.0032,2.14,26.47,11111222 
SCCF RECON,ioos:station:SCCF:13:1,2019-06-13T04:00:00Z,26.5255,-82.0032,2.44,31.26,11111222 
SCCF RECON,ioos:station:SCCF:13:1,2019-06-13T05:00:00Z,26.5255,-82.0032,2.38,32.12,11111222 
SCCF RECON,ioos:station:SCCF:13:1,2019-06-13T06:00:00Z,26.5255,-82.0032,2.31,31.97,11111222 
SCCF RECON,ioos:station:SCCF:13:1,2019-06-13T07:00:00Z,26.5255,-82.0032,2.259,30.14,11111222 
SCCF RECON,ioos:station:SCCF:13:1,2019-06-13T08:00:00Z,26.5255,-82.0032,2.217,26.71,11111222 
SCCF RECON,ioos:station:SCCF:13:1,2019-06-13T09:00:00Z,26.5255,-82.0032,2.2,26.52,11111222 
SCCF RECON,ioos:station:SCCF:13:1,2019-06-13T10:00:00Z,26.5255,-82.0032,2.23,25.49,11111222 
SCCF RECON,ioos:station:SCCF:13:1,2019-06-13T11:00:00Z,26.5255,-82.0032,2.32,25.43,11111222 
SCCF RECON,ioos:station:SCCF:13:1,2019-06-13T12:00:00Z,26.5255,-82.0032,2.41,28.52,11111222 
SCCF RECON,ioos:station:SCCF:13:1,2019-06-13T13:00:00Z,26.5255,-82.0032,2.49,30.19,11111222 
SCCF RECON,ioos:station:SCCF:13:1,2019-06-13T14:00:00Z,26.5255,-82.0032,2.57,31.52,11111222 
SCCF RECON,ioos:station:SCCF:13:1,2019-06-13T15:00:00Z,26.5255,-82.0032,2.62,33.18,11111222 
SCCF RECON,ioos:station:SCCF:13:1,2019-06-13T16:00:00Z,26.5255,-82.0032,2.6,34.11,11111222 
SCCF RECON,ioos:station:SCCF:13:1,2019-06-13T17:00:00Z,26.5255,-82.0032,2.475,34.09,11111222 
SCCF RECON,ioos:station:SCCF:13:1,2019-06-13T18:00:00Z,26.5255,-82.0032,2.363,33.96,11111222 
SCCF RECON,ioos:station:SCCF:13:1,2019-06-13T19:00:00Z,26.5255,-82.0032,2.274,32.55,11111222 
SCCF RECON,ioos:station:SCCF:13:1,2019-06-13T20:00:00Z,26.5255,-82.0032,2.19,31.03,11111222 
SCCF RECON,ioos:station:SCCF:13:1,2019-06-13T21:00:00Z,26.5255,-82.0032,2.11,29.39,11111222 
SCCF RECON,ioos:station:SCCF:13:1,2019-06-13T22:00:00Z,26.5255,-82.0032,2.052,27.64,11111222 
SCCF RECON,ioos:station:SCCF:13:1,2019-06-13T23:00:00Z,26.5255,-82.0032,2.07,26.12,11111222 
SCCF RECON,ioos:station:SCCF:13:1,2019-06-14T04:00:00Z,26.5255,-82.0032,2.32,26.99,11111222 
SCCF RECON,ioos:station:SCCF:13:1,2019-06-14T05:00:00Z,26.5255,-82.0032,2.36,28.94,11111222 
SCCF RECON,ioos:station:SCCF:13:1,2019-06-14T06:00:00Z,26.5255,-82.0032,2.36,29.77,11111222 